Tiempo cada hora Mushkovatovo

Hoy, 24 Octubre, Sábado

Tiempo Temperatura Precipitaciones Viento Presión Humedad
00:00 +11°C° 0.2 mm 6 mps 744 mmHg 86%
01:00 +10°C° 0 mm 6 mps 744 mmHg 88%
02:00 +10°C° 0 mm 5 mps 744 mmHg 90%
03:00 +9°C° 0 mm 5 mps 744 mmHg 92%
04:00 +9°C° 0 mm 5 mps 744 mmHg 91%
05:00 +9°C° 0 mm 5 mps 744 mmHg 91%
06:00 +8°C° 0 mm 5 mps 744 mmHg 91%
07:00 +8°C° 0 mm 5 mps 745 mmHg 89%
08:00 +9°C° 0 mm 5 mps 746 mmHg 87%
09:00 +9°C° 0 mm 5 mps 746 mmHg 85%
10:00 +9°C° 0 mm 5 mps 746 mmHg 80%
11:00 +9°C° 0 mm 5 mps 747 mmHg 75%
12:00 +10°C° 0 mm 5 mps 747 mmHg 69%
13:00 +11°C° 0 mm 4 mps 747 mmHg 68%
14:00 +11°C° 0 mm 4 mps 747 mmHg 67%
15:00 +12°C° 0 mm 4 mps 747 mmHg 66%
16:00 +11°C° 0 mm 3 mps 747 mmHg 73%
17:00 +10°C° 0 mm 3 mps 747 mmHg 79%
18:00 +9°C° 0 mm 2 mps 747 mmHg 85%
19:00 +9°C° 0 mm 2 mps 747 mmHg 86%
20:00 +9°C° 0 mm 2 mps 747 mmHg 86%
21:00 +9°C° 0 mm 2 mps 747 mmHg 86%
22:00 +9°C° 0.3 mm 2 mps 747 mmHg 88%
23:00 +9°C° 0.3 mm 2 mps 747 mmHg 90%

Mañana, 25 Octubre, Domingo

Tiempo Temperatura Precipitaciones Viento Presión Humedad
00:00 +10°C° 0.3 mm 1 mps 746 mmHg 92%
01:00 +9°C° 1.2 mm 1 mps 746 mmHg 94%
02:00 +9°C° 1.2 mm 1 mps 746 mmHg 95%
03:00 +9°C° 1.2 mm 1 mps 746 mmHg 96%
04:00 +9°C° 1 mm 1 mps 746 mmHg 96%
05:00 +9°C° 1 mm 1 mps 746 mmHg 96%
06:00 +8°C° 1 mm 2 mps 746 mmHg 96%
07:00 +8°C° 0.3 mm 2 mps 746 mmHg 94%
08:00 +8°C° 0.3 mm 3 mps 747 mmHg 93%
09:00 +8°C° 0.3 mm 3 mps 747 mmHg 92%
10:00 +8°C° 0.1 mm 4 mps 748 mmHg 86%
11:00 +10°C° 0.1 mm 4 mps 749 mmHg 80%
12:00 +9°C° 0.1 mm 5 mps 749 mmHg 75%
13:00 +9°C° 0 mm 5 mps 750 mmHg 74%
14:00 +9°C° 0 mm 5 mps 750 mmHg 73%
15:00 +9°C° 0 mm 5 mps 750 mmHg 72%
16:00 +8°C° 0 mm 4 mps 751 mmHg 76%
17:00 +8°C° 0 mm 3 mps 751 mmHg 81%
18:00 +7°C° 0 mm 3 mps 751 mmHg 86%
19:00 +7°C° 0 mm 2 mps 752 mmHg 88%
20:00 +6°C° 0 mm 2 mps 752 mmHg 90%
21:00 +6°C° 0 mm 2 mps 753 mmHg 92%
22:00 +6°C° 0 mm 2 mps 753 mmHg 92%
23:00 +7°C° 0 mm 2 mps 753 mmHg 92%

Pasado mañana, 26 Octubre, Lunes

Tiempo Temperatura Precipitaciones Viento Presión Humedad
00:00 +7°C° 0 mm 2 mps 754 mmHg 91%
01:00 +7°C° 0 mm 2 mps 754 mmHg 91%
02:00 +7°C° 0 mm 2 mps 754 mmHg 91%
03:00 +7°C° 0 mm 2 mps 755 mmHg 91%
04:00 +7°C° 0 mm 2 mps 755 mmHg 91%
05:00 +7°C° 0 mm 3 mps 755 mmHg 91%
06:00 +5°C° 0 mm 3 mps 755 mmHg 91%
07:00 +7°C° 0 mm 3 mps 756 mmHg 89%
08:00 +7°C° 0 mm 2 mps 756 mmHg 88%
09:00 +7°C° 0 mm 2 mps 756 mmHg 87%
10:00 +8°C° 0 mm 2 mps 757 mmHg 83%
11:00 +9°C° 0 mm 2 mps 757 mmHg 79%
12:00 +10°C° 0 mm 2 mps 757 mmHg 75%
13:00 +10°C° 0 mm 2 mps 757 mmHg 74%
14:00 +10°C° 0 mm 2 mps 757 mmHg 73%
15:00 +10°C° 0 mm 2 mps 758 mmHg 72%
16:00 +9°C° 0 mm 2 mps 758 mmHg 77%
17:00 +9°C° 0 mm 1 mps 758 mmHg 82%
18:00 +8°C° 0 mm 1 mps 758 mmHg 87%
19:00 +7°C° 0 mm 2 mps 759 mmHg 89%
20:00 +6°C° 0 mm 2 mps 759 mmHg 91%
21:00 +6°C° 0 mm 2 mps 759 mmHg 93%
22:00 +5°C° 0 mm 2 mps 759 mmHg 93%
23:00 +5°C° 0 mm 2 mps 760 mmHg 93%

, 27 Octubre, Martes

Tiempo Temperatura Precipitaciones Viento Presión Humedad
00:00 +4°C° 0 mm 2 mps 760 mmHg 93%
01:00 +4°C° 0 mm 2 mps 760 mmHg 93%
02:00 +4°C° 0 mm 2 mps 760 mmHg 93%
03:00 +4°C° 0 mm 2 mps 760 mmHg 92%
04:00 +4°C° 0 mm 2 mps 761 mmHg 92%
05:00 +3°C° 0 mm 2 mps 761 mmHg 92%
06:00 +3°C° 0 mm 2 mps 761 mmHg 92%
07:00 +4°C° 0 mm 2 mps 761 mmHg 89%
08:00 +3°C° 0 mm 3 mps 761 mmHg 87%
09:00 +3°C° 0 mm 3 mps 761 mmHg 84%
10:00 +4°C° 0 mm 3 mps 761 mmHg 81%
11:00 +5°C° 0 mm 3 mps 762 mmHg 78%
12:00 +7°C° 0 mm 3 mps 762 mmHg 75%
13:00 +8°C° 0 mm 3 mps 762 mmHg 74%
14:00 +8°C° 0 mm 3 mps 761 mmHg 74%
15:00 +8°C° 0 mm 3 mps 761 mmHg 74%
16:00 +7°C° 0 mm 3 mps 761 mmHg 78%
17:00 +5°C° 0 mm 3 mps 761 mmHg 81%
18:00 +5°C° 0 mm 3 mps 761 mmHg 85%
19:00 +4°C° 0 mm 3 mps 761 mmHg 87%
20:00 +4°C° 0 mm 3 mps 761 mmHg 88%
21:00 +4°C° 0 mm 3 mps 761 mmHg 89%
22:00 +4°C° 0 mm 3 mps 761 mmHg 90%
23:00 +4°C° 0 mm 3 mps 761 mmHg 90%

27 Octubre, Martes

Tiempo Temperatura Precipitaciones Viento Presión Humedad
00:00 +4°C° 0 mm 2 mps 760 mmHg 93%
01:00 +4°C° 0 mm 2 mps 760 mmHg 93%
02:00 +4°C° 0 mm 2 mps 760 mmHg 93%
03:00 +4°C° 0 mm 2 mps 760 mmHg 92%
04:00 +4°C° 0 mm 2 mps 761 mmHg 92%
05:00 +3°C° 0 mm 2 mps 761 mmHg 92%
06:00 +3°C° 0 mm 2 mps 761 mmHg 92%
07:00 +4°C° 0 mm 2 mps 761 mmHg 89%
08:00 +3°C° 0 mm 3 mps 761 mmHg 87%
09:00 +3°C° 0 mm 3 mps 761 mmHg 84%
10:00 +4°C° 0 mm 3 mps 761 mmHg 81%
11:00 +5°C° 0 mm 3 mps 762 mmHg 78%
12:00 +7°C° 0 mm 3 mps 762 mmHg 75%
13:00 +8°C° 0 mm 3 mps 762 mmHg 74%
14:00 +8°C° 0 mm 3 mps 761 mmHg 74%
15:00 +8°C° 0 mm 3 mps 761 mmHg 74%
16:00 +7°C° 0 mm 3 mps 761 mmHg 78%
17:00 +5°C° 0 mm 3 mps 761 mmHg 81%
18:00 +5°C° 0 mm 3 mps 761 mmHg 85%
19:00 +4°C° 0 mm 3 mps 761 mmHg 87%
20:00 +4°C° 0 mm 3 mps 761 mmHg 88%
21:00 +4°C° 0 mm 3 mps 761 mmHg 89%
22:00 +4°C° 0 mm 3 mps 761 mmHg 90%
23:00 +4°C° 0 mm 3 mps 761 mmHg 90%

28 Octubre, Miércoles

Tiempo Temperatura Precipitaciones Viento Presión Humedad
00:00 +3°C° 0 mm 3 mps 761 mmHg 90%
01:00 +3°C° 0 mm 3 mps 761 mmHg 90%
02:00 +3°C° 0 mm 3 mps 761 mmHg 90%
03:00 +3°C° 0 mm 3 mps 761 mmHg 89%
04:00 +3°C° 0 mm 3 mps 761 mmHg 89%
05:00 +3°C° 0 mm 3 mps 761 mmHg 90%
06:00 +3°C° 0 mm 3 mps 762 mmHg 90%
07:00 +3°C° 0 mm 3 mps 762 mmHg 86%
08:00 +4°C° 0 mm 4 mps 762 mmHg 82%
09:00 +4°C° 0 mm 4 mps 762 mmHg 78%
10:00 +5°C° 0 mm 4 mps 762 mmHg 74%
11:00 +7°C° 0 mm 4 mps 762 mmHg 70%
12:00 +8°C° 0 mm 4 mps 762 mmHg 65%
13:00 +8°C° 0 mm 4 mps 762 mmHg 63%
14:00 +8°C° 0 mm 4 mps 762 mmHg 61%
15:00 +8°C° 0 mm 4 mps 762 mmHg 60%
16:00 +7°C° 0 mm 4 mps 761 mmHg 63%
17:00 +6°C° 0 mm 4 mps 761 mmHg 67%
18:00 +5°C° 0 mm 4 mps 761 mmHg 71%
19:00 +4°C° 0 mm 4 mps 761 mmHg 70%
20:00 +4°C° 0 mm 4 mps 762 mmHg 69%
21:00 +3°C° 0 mm 4 mps 762 mmHg 69%
22:00 +3°C° 0 mm 4 mps 762 mmHg 67%
23:00 +3°C° 0 mm 4 mps 762 mmHg 65%

29 Octubre, Jueves

Tiempo Temperatura Precipitaciones Viento Presión Humedad
00:00 +1°C° 0 mm 4 mps 762 mmHg 63%
01:00 +1°C° 0 mm 4 mps 762 mmHg 63%
02:00 +1°C° 0 mm 3 mps 762 mmHg 63%
03:00 +1°C° 0 mm 3 mps 762 mmHg 63%
04:00 0°C° 0 mm 3 mps 762 mmHg 64%
05:00 0°C° 0 mm 3 mps 762 mmHg 66%
06:00 0°C° 0 mm 3 mps 761 mmHg 67%
07:00 0°C° 0 mm 3 mps 761 mmHg 65%
08:00 0°C° 0 mm 4 mps 761 mmHg 64%
09:00 0°C° 0 mm 4 mps 761 mmHg 62%
10:00 +1°C° 0 mm 4 mps 761 mmHg 60%
11:00 +3°C° 0 mm 4 mps 761 mmHg 59%
12:00 +5°C° 0 mm 4 mps 761 mmHg 57%
13:00 +5°C° 0 mm 4 mps 761 mmHg 56%
14:00 +6°C° 0 mm 4 mps 760 mmHg 56%
15:00 +6°C° 0 mm 4 mps 760 mmHg 55%
16:00 +5°C° 0 mm 4 mps 760 mmHg 59%
17:00 +4°C° 0 mm 4 mps 760 mmHg 62%
18:00 +3°C° 0 mm 3 mps 759 mmHg 66%
19:00 +3°C° 0 mm 3 mps 759 mmHg 65%
20:00 +3°C° 0 mm 3 mps 759 mmHg 65%
21:00 +3°C° 0 mm 3 mps 759 mmHg 64%
22:00 +3°C° 0 mm 3 mps 759 mmHg 64%
23:00 +3°C° 0 mm 3 mps 759 mmHg 64%
Mostrar más

Necesitamos Su Consentimiento

Meteoprog y nuestros Proveedores de Servicios pueden almacenar y acceder a sus datos personales como cookies, identificadores de dispositivo u otras tecnologías similares de su dispositivo y procesar dichos datos para personalizar contenido y anuncios, además de ofrecer funciones de redes sociales y analizar el tráfico.

  • Almacenar y/o acceder a información en su dispositivo

    Se puede almacenar o acceder a cookies, identificadores de dispositivo u otra información de su dispositivo para los fines anteriormente indicados.

  • Anuncios y contenido personalizados, medición de anuncios y contenido, percepciones del público, y desarrollo de productos

    Los anuncios y el contenido pueden personalizarse en base a su perfil. Se pueden añadir más datos para personalizar mejor los anuncios y contenidos. Se puede medir el rendimiento de los anuncios y contenidos. Se puede obtener la percepción sobre el público que ha visto los anuncios y contenidos. Dichos datos pueden usarse para desarrollar o mejorar la experiencia del usuario, sistemas y software.

Al hacer clic en ‘Estoy De Acuerdo’ usted permitirá el uso de las cookies, identificadores de dispositivo, balizas web u otras tecnologías similares indicadas. Su configuración puede cambiarse desde el navegador de su dispositivo.

Para ciertos fines, los intereses legítimos pueden ser considerados por encima del consentimiento. Puede leer más sobre ello en nuestra Política de Privacidad y Cookies.